星链-2714 (STARLINK-2714 )

导读

STARLINK-2714是美国SpaceX公司星链(Starlink)卫星互联网项目的组网卫星,于2021年5月15日发射升空,属于星链低轨卫星星座的一员。星链计划旨在构建覆盖全球的低轨卫星互联网,为偏远地区提供高速宽带服务,该卫星已成为星座中数千颗在轨卫星之一,助力实现全球网络覆盖,同时也引发了天文观测等领域的相关讨论。

Basic Information
目录编号:
48603
目录名称:
STARLINK-2714
国际标识:
2021-041BC
轨道中心:
EARTH
卫星名称:
星链-2714
卫星全名:
星链-2714 (STARLINK-2714 )
卫星状态:
在轨 (已飞行1939 天)
发射日期:
2021-05-15 UTC
国别 :
美国 (US)
星等 :
--
Orbit Information
数据来源 国际轨道数据
星历时间: 2026-09-05T08:37:00+0800
8小时前
查看轨道信息
半长轴: 6848.877km
偏心率: 0.0000804
轨道倾角: 53.161°
近地点辐角 77.531°
升交点赤经 0.899°
平近点角 282.578°
近地点: 470.189km
远地点: 471.291km
周期: 94.013分钟
每日圈数: 15.317002
Detailed Information
固有亮度:
5
最大亮度:
2.5
卫星平台:
Starlink V1.0
覆盖范围:
全球
运营商:
太空探索技术公司
运营商所在国:
美国
制造商(研发单位):
太空探索技术公司
制造商所在国:
美国
使用方式:
暂无
Satellite Introduction
星链(Starlink)计划是由太空探索技术公司(SpaceX)提出的一个巨型低轨卫星互联网星座项目,计划在2019年至2024年间在太空搭建由约1.2万颗卫星组成的“星链”网络,其中1584颗将部署在地球上空550千米处的近地轨道,并从2020年开始工作。该卫星仍在工作。
2D Orbit Map
3D Orbit Map
Orbit Altitude Analysis Chart
Orbit Inclination Analysis Chart
Orbit Comprehensive Analysis Chart
View Comprehensive Chart
Conjunction Data List
Event ID Objects TCA Miss Dist (km) Collision Risk Probability Collision Risk Index (CRI) Action
CDM_260901-121104-860306-489024
OBJECT Q (64890)
2026-09-01T
12:11:18+0000
0.694 km
远距离
8.717305E-5 中风险 0.74
CDM_260905-132803-074404-860321
2026-09-05T
13:28:24+0000
1.530 km
极远距离
4.942325E-6 低风险 0.49
CDM_260905-120604-860305-548721
2026-09-05T
12:06:25+0000
1.620 km
极远距离
2.431227E-6 低风险 0.43
CDM_260901-125804-860306-489024
OBJECT Q (64890)
2026-09-01T
12:58:18+0000
2.719 km
极远距离
1.517738E-6 低风险 0.39
CDM_260906-011404-860306-891221
2026-09-06T
01:14:54+0000
2.958 km
极远距离
1.1493E-6 低风险 0.36